Location: Taukkyan
(23.1052°N, 94.0030°E)
Time: 23:09:12
(UTC+00:00)

Cosmos 1937 Rocket - Pass Details

Date: 06 July 2020
Orbit: 746 x 781 km, 74.0° (Epoch: 05 August)

Event Time Altitude Azimuth Distance (km) Brightness Sun altitude
Rises 12:46:12 0° 353° (N) 3,263 7.3 -3.4°
Reaches altitude 10° 12:48:40 10° 359° (N) 2,332 6.4 -3.9°
Maximum altitude 12:53:48 49° 74° (ENE) 992 3.8 -5.0°
Drops below altitude 10° 12:58:53 10° 149° (SSE) 2,312 5.5 -6.0°
Enters shadow 13:00:59 - 153° (SSE) 3,105 6.1 -6.4°
